GFSCGP_925_thetae_000.txt.gz
Theta_e
312 309 317 314 312 313 313 314 314 311 313 313 312 311 307 305 301 301 300 299 298 299 300 299 296 296 296 297 296 297 299 301 305 306 308 311 318 319 321 321 322 321 322 321
311 307 312 311 311 312 313 312 310 313 312 309 309 307 304 304 298 298 299 297 297 298 300 298 296 295 295 297 296 296 298 300 304 305 306 306 309 314 320 320 320 321 321 321
308 306 309 311 312 311 309 311 313 311 308 307 306 305 305 302 299 297 297 297 297 296 297 297 295 294 295 296 295 295 296 298 302 302 301 302 305 309 315 320 320 320 320 320
306 309 310 310 311 309 311 309 308 305 305 305 305 304 306 306 300 297 297 296 296 295 295 295 294 293 294 295 294 294 295 297 300 301 300 298 301 306 309 312 320 319 317 318
306 308 309 311 309 308 312 304 304 304 305 306 305 306 309 307 300 296 296 296 295 295 294 294 294 293 293 294 293 294 294 296 296 300 299 298 298 300 304 307 313 319 318 319
306 305 308 309 307 305 301 303 303 305 306 307 303 299 302 300 295 295 296 295 294 294 294 294 293 292 293 293 293 293 293 293 294 295 299 297 298 299 301 304 308 317 318 318
308 309 305 304 306 305 301 304 303 306 308 306 301 298 299 296 295 295 294 294 293 293 293 293 293 293 293 293 292 293 292 293 293 293 296 298 297 298 299 303 306 311 317 317
307 306 309 303 302 301 303 304 300 300 302 302 299 299 300 295 295 295 294 293 293 293 293 293 293 293 292 292 292 292 292 292 292 292 294 296 296 297 298 299 302 306 308 317
304 305 300 297 299 300 304 303 299 297 298 299 298 298 299 295 295 294 293 292 292 291 292 293 293 292 292 292 291 291 291 292 292 292 293 296 296 296 297 297 298 298 305 307
304 302 300 297 297 295 296 297 299 298 296 296 296 295 295 294 294 293 292 292 291 292 293 293 293 292 291 291 291 290 290 291 291 292 292 295 296 296 296 295 296 297 298 303
298 299 298 295 295 296 294 294 294 292 293 295 295 295 295 294 293 292 291 291 291 292 293 292 292 291 289 289 288 287 287 288 290 292 292 293 295 296 296 296 296 296 297 296
294 296 296 295 293 292 293 295 292 292 292 292 293 293 294 294 293 292 290 290 291 292 292 291 290 288 286 283 281 280 280 281 282 284 286 292 293 295 296 296 295 295 296 295
294 294 297 294 293 292 292 292 292 291 291 293 294 294 294 294 292 291 290 291 292 291 290 289 289 286 281 279 277 277 277 278 278 279 282 285 289 293 293 294 295 295 293 293
294 293 295 296 295 292 291 291 291 292 293 293 294 294 294 292 290 290 291 290 290 289 289 288 285 282 279 277 276 275 275 276 276 277 279 281 283 287 290 292 294 294 293 293
293 293 293 293 293 293 292 291 291 291 291 291 292 292 292 291 289 290 290 290 288 289 287 284 282 280 278 276 275 274 274 275 275 276 277 278 279 281 282 287 292 293 293 292
293 293 292 293 292 292 292 292 292 292 292 292 294 294 291 290 290 290 289 287 288 287 284 282 280 278 277 275 274 274 274 275 276 276 277 277 277 278 279 286 289 292 293 292
293 292 293 296 291 291 292 292 292 291 290 290 289 290 289 290 290 289 287 288 285 283 281 280 278 277 275 274 273 274 273 273 273 276 277 276 276 278 279 281 289 292 292 292
292 293 293 294 290 293 292 290 289 289 289 289 289 289 290 290 289 287 288 285 282 280 279 278 276 275 274 273 272 271 271 272 273 277 278 277 277 278 279 281 286 290 290 292
293 293 294 294 291 291 290 289 289 289 289 289 289 290 290 289 286 288 287 283 280 279 278 276 274 274 272 272 270 269 270 270 272 273 277 278 277 278 279 281 283 288 290 293
292 292 293 288 291 293 290 288 289 288 289 290 290 290 289 286 289 288 283 280 278 277 275 274 273 272 272 270 269 269 269 269 270 271 273 274 278 278 279 280 284 285 288 292
293 293 294 293 292 291 290 289 288 289 290 290 290 289 286 285 285 282 279 278 276 275 273 273 272 271 271 270 269 269 268 269 269 270 271 273 274 279 279 280 283 285 288 293
292 293 292 293 292 291 290 289 289 290 290 290 288 285 282 281 280 279 277 275 274 273 272 271 271 270 269 269 268 268 268 267 268 269 269 270 272 278 281 282 285 287 291 293
293 292 291 290 291 290 289 290 290 290 290 288 284 282 279 278 278 276 274 273 272 271 270 269 268 267 267 267 267 266 266 267 266 266 268 270 272 276 283 284 287 291 292 294
291 290 290 289 290 290 289 289 289 287 287 283 280 278 276 276 275 273 272 271 270 269 268 267 266 266 266 266 266 265 266 265 265 267 270 273 275 278 282 288 291 292 293 294
291 290 291 291 291 291 291 291 291 285 281 279 277 275 274 273 272 271 269 269 268 267 266 265 265 264 264 264 264 264 264 263 265 269 272 275 278 281 282 288 291 292 292 294
290 291 290 292 291 291 292 289 285 284 281 278 275 274 272 270 270 269 267 267 266 265 264 264 262 262 262 262 262 263 262 262 265 269 271 272 277 285 285 289 292 292 292 293

GFSCGP_925_thetae_003.txt.gz
Theta_e
316 314 316 317 312 312 313 315 315 313 314 312 310 309 308 302 301 301 299 298 297 297 296 295 295 295 294 295 296 296 295 296 296 299 303 304 303 302 305 310 311 322 322 322
318 320 314 311 312 314 314 313 311 312 313 310 308 308 306 301 298 299 298 297 297 296 295 295 294 294 294 294 294 296 295 294 295 297 300 302 302 300 301 307 310 308 321 322
315 316 309 312 314 313 312 310 312 311 310 309 308 308 306 300 298 298 298 297 296 295 295 295 294 293 293 293 294 294 294 294 294 295 297 298 301 300 300 299 302 306 307 321
309 309 312 313 312 310 311 308 308 308 309 308 307 307 308 302 301 298 298 297 296 295 295 294 294 293 293 293 293 293 294 293 293 294 295 296 297 301 299 299 299 302 305 307
311 307 309 309 310 309 310 304 306 307 308 307 307 307 309 307 306 298 297 295 294 294 294 293 293 293 293 293 293 293 293 293 293 294 294 294 296 298 300 299 299 300 304 305
308 308 309 311 309 306 303 306 305 306 306 308 308 305 307 306 301 297 296 295 294 294 293 293 292 292 293 293 293 293 293 292 293 293 293 294 294 295 298 299 299 299 302 305
311 310 308 305 308 307 305 305 306 312 314 314 304 302 303 299 296 296 295 294 293 293 293 293 294 293 293 292 292 292 292 291 291 291 292 293 293 294 295 298 298 298 298 298
311 312 309 305 306 306 304 303 304 306 309 308 303 301 303 299 296 296 295 293 293 292 293 293 293 292 292 291 290 289 287 289 289 290 291 292 292 294 294 297 298 298 298 298
309 307 303 299 301 302 306 304 302 302 303 300 303 302 299 298 296 296 294 293 292 292 292 293 292 291 290 290 288 286 283 282 282 282 283 284 288 293 293 295 297 297 297 297
307 306 305 298 298 297 299 300 300 299 301 304 304 302 301 297 296 294 293 292 292 292 292 292 291 290 290 287 284 282 280 279 278 278 280 281 283 286 287 294 296 297 296 296
303 302 302 299 299 301 297 297 295 296 298 298 300 302 297 295 295 293 292 292 292 292 292 291 290 290 287 284 282 280 279 278 278 278 279 280 281 282 284 287 295 296 296 296
300 301 301 301 296 294 294 296 296 296 298 295 296 297 297 296 295 293 292 291 292 292 291 290 290 288 285 283 281 279 278 277 277 277 277 278 279 280 283 285 288 294 296 296
297 299 300 301 295 293 294 294 295 296 294 297 297 297 296 295 296 293 291 291 292 290 290 290 289 286 284 282 279 278 277 276 276 275 276 277 277 279 280 281 284 287 289 295
297 297 300 306 306 294 293 294 294 294 296 297 296 296 296 296 294 292 291 291 291 289 290 288 287 285 283 281 278 277 276 274 274 275 275 276 277 278 278 279 281 281 284 288
295 298 298 298 298 296 295 294 293 293 294 295 296 295 295 294 293 290 291 291 290 289 288 287 285 284 281 279 277 276 275 274 273 273 273 273 274 275 277 278 278 279 281 286
296 297 295 294 294 294 294 294 294 294 293 293 294 294 294 294 291 291 291 290 289 289 287 285 284 282 280 278 277 275 274 273 271 271 271 272 273 273 278 278 277 278 280 281
295 295 296 298 294 293 296 295 294 294 294 293 293 294 294 291 290 291 290 289 289 287 284 283 282 280 278 276 276 274 273 271 271 270 271 271 272 273 277 278 277 278 280 282
295 296 296 298 295 299 296 291 291 293 293 293 292 292 291 290 291 290 290 288 286 284 282 280 279 277 275 274 274 273 271 271 270 270 270 270 272 273 273 275 278 278 279 281
296 295 297 297 297 297 295 294 290 289 291 291 290 290 290 290 290 289 289 285 283 282 280 278 276 275 273 273 272 270 270 270 270 270 270 270 270 271 272 274 277 278 279 282
293 294 295 296 296 299 292 290 290 289 290 291 291 290 290 290 290 290 287 283 281 279 277 275 274 272 272 271 270 269 269 269 269 269 269 269 269 270 271 272 274 279 279 283
294 294 294 296 295 295 294 290 290 290 291 290 290 290 290 289 289 287 284 281 279 277 275 274 272 271 270 269 268 268 268 268 267 268 267 267 268 269 270 271 273 280 280 283
294 294 295 295 296 295 294 289 289 292 291 291 291 290 288 286 284 283 281 279 277 275 273 272 270 269 268 268 267 267 266 266 266 265 265 266 268 271 272 273 275 283 283 285
295 295 295 295 295 293 292 292 291 291 290 291 289 288 284 282 282 280 278 276 274 272 271 270 268 267 267 266 265 266 265 264 264 263 265 269 272 274 277 277 278 284 286 289
294 294 294 291 292 292 291 291 291 290 290 289 285 282 280 280 279 276 275 273 272 271 269 268 266 266 265 265 264 264 263 262 262 263 267 270 271 273 276 280 282 288 290 293
294 293 293 293 293 293 292 292 292 290 287 283 280 279 278 277 275 274 272 271 270 269 267 266 265 264 263 263 263 262 261 260 261 264 268 269 270 272 274 278 286 287 293 293
292 292 292 294 293 292 293 292 292 290 285 283 281 278 275 274 273 272 270 269 268 266 265 264 263 262 262 261 260 261 260 259 261 264 267 267 269 270 271 274 276 287 292 292

GFSCGP_925_thetae_006.txt.gz
Theta_e
317 314 317 317 311 311 311 312 312 313 313 311 311 309 307 303 300 298 296 295 295 294 294 295 294 293 292 293 293 292 293 293 293 294 294 293 295 295 299 299 300 300 303 301
318 319 312 311 311 313 313 312 312 311 312 310 309 309 303 301 300 298 296 296 295 293 293 294 294 292 292 292 292 292 293 293 293 293 293 293 293 295 295 298 299 300 299 300
315 316 310 310 311 312 311 311 311 311 309 307 307 307 303 299 298 298 297 297 294 292 293 292 292 292 291 292 292 292 292 292 292 293 293 292 293 294 295 295 297 299 299 299
310 309 311 312 312 310 311 306 307 308 308 306 305 305 305 298 297 297 296 293 292 292 292 292 292 291 291 292 292 291 291 291 291 292 291 292 291 292 293 294 295 296 299 299
313 309 308 309 309 309 310 305 305 306 306 306 305 304 305 300 298 297 295 294 292 292 292 290 291 292 291 291 291 290 289 289 289 288 287 288 290 290 290 292 294 295 297 298
308 307 308 308 310 308 305 306 306 305 304 306 305 305 306 301 301 296 294 292 292 292 291 291 292 291 291 290 290 289 288 287 286 284 282 282 284 284 287 290 292 293 295 298
312 308 307 305 308 307 307 305 306 310 308 309 302 301 303 297 296 294 293 292 291 290 290 290 291 291 290 289 289 287 285 284 282 281 280 280 280 281 283 285 289 293 295 297
312 313 309 305 307 304 305 304 305 306 310 307 300 300 303 297 295 294 293 292 291 290 290 290 290 290 289 289 288 286 284 283 281 280 279 279 279 279 280 283 285 286 291 296
312 311 302 299 301 302 305 303 301 303 294 298 299 302 298 296 295 294 293 291 290 290 290 290 290 289 289 288 286 284 283 281 280 279 278 278 278 278 279 280 282 284 286 292
307 308 304 297 298 298 298 300 300 299 296 300 302 302 301 296 295 293 292 291 290 290 290 289 289 289 288 287 285 284 282 280 279 278 277 276 277 277 277 279 280 282 285 287
304 305 303 299 298 299 296 296 296 297 301 301 299 300 295 294 295 293 292 291 290 290 289 288 288 288 287 286 284 282 281 279 278 277 276 275 275 275 277 277 278 280 282 283
301 303 303 303 296 295 295 297 296 295 298 295 297 297 298 297 293 292 292 290 290 290 288 288 288 287 286 285 283 281 280 278 277 276 275 275 273 275 274 276 278 279 279 283
297 301 306 306 296 293 293 293 294 295 295 296 299 298 294 294 293 292 290 289 289 289 288 288 287 286 285 283 281 279 278 277 277 275 274 273 273 273 273 274 274 276 278 279
299 301 305 317 311 296 294 293 293 293 294 296 296 296 296 296 296 292 289 289 289 288 288 288 286 284 283 282 280 278 277 276 276 275 274 273 272 271 272 273 274 275 276 279
299 302 302 301 298 297 297 295 293 293 293 294 296 295 296 296 292 291 289 290 289 288 288 286 284 283 282 280 278 276 275 275 274 273 272 272 272 271 271 271 272 273 277 278
298 300 301 300 295 294 294 294 294 294 294 293 294 294 295 295 292 289 290 289 288 288 285 284 283 281 280 278 276 275 274 273 273 272 272 271 271 271 271 271 272 273 276 278
300 298 299 303 296 296 297 295 294 294 294 294 293 294 294 292 291 290 289 288 288 285 284 282 281 279 278 276 275 273 272 272 271 271 270 270 270 271 270 271 271 272 273 274
299 298 299 299 298 300 299 292 292 293 294 294 294 294 292 290 290 290 289 285 284 284 282 281 279 277 275 274 273 272 271 271 271 270 270 270 269 269 269 270 270 271 272 274
298 298 297 298 298 298 298 295 289 289 291 292 293 293 291 289 289 289 285 284 283 281 280 278 277 275 274 272 271 270 269 270 270 270 269 268 268 267 268 268 269 270 271 272
297 297 298 296 297 297 292 289 289 289 289 290 291 289 289 289 287 287 284 282 281 279 278 276 274 273 272 271 269 269 269 268 269 268 267 266 266 266 267 268 269 270 270 272
296 296 296 297 297 295 295 289 290 290 295 290 289 289 289 289 288 285 282 281 279 277 275 274 272 271 270 269 268 267 267 267 267 266 265 264 264 265 269 272 273 272 272 273
295 294 295 295 296 296 292 289 290 291 290 290 289 289 289 288 286 283 281 278 276 275 273 272 271 269 268 267 266 265 266 265 265 263 262 263 265 269 270 272 274 276 274 275
296 296 295 294 295 293 290 291 290 291 290 290 289 288 286 285 283 281 278 276 275 273 272 270 268 267 267 266 265 264 264 263 262 261 262 264 267 268 270 271 273 279 278 278
294 294 295 295 295 293 292 291 290 290 290 289 287 284 282 281 280 277 276 275 273 271 270 268 267 266 265 264 263 262 262 261 260 260 263 265 266 267 269 270 272 275 279 285
295 294 295 295 294 293 292 291 291 290 288 285 282 281 281 279 277 276 274 272 271 269 268 266 265 264 263 262 261 260 259 259 259 261 263 264 265 266 267 269 270 272 275 279
294 294 296 296 295 294 293 291 290 289 286 284 281 278 277 277 275 273 271 270 269 267 266 264 263 262 261 260 259 258 258 257 258 261 263 263 264 265 266 267 268 269 271 274

GFSCGP_925_thetae_009.txt.gz
Theta_e
314 313 314 313 309 310 310 310 309 309 310 309 308 309 304 301 296 294 293 292 291 291 293 293 292 292 291 291 291 291 291 290 290 290 290 290 292 291 291 291 292 294 295 297
311 314 312 309 309 310 311 311 309 308 309 308 307 307 307 300 297 295 293 292 291 291 292 292 292 292 291 291 291 290 290 289 289 289 289 289 288 288 289 289 291 292 293 294
313 314 308 309 309 311 310 309 308 309 307 305 305 304 302 299 297 295 294 292 291 291 292 291 291 291 291 290 290 289 289 289 288 287 286 286 285 284 285 288 289 290 290 292
309 308 309 310 310 310 308 306 306 306 305 305 304 305 301 297 297 296 294 290 290 290 291 290 291 291 290 290 290 289 289 288 286 285 284 282 281 281 281 282 282 283 287 291
314 307 307 308 307 308 308 304 304 304 304 304 304 303 302 298 297 297 292 290 290 290 290 290 290 291 290 290 289 289 288 286 285 284 282 281 280 280 279 279 279 280 284 288
309 306 306 305 308 307 305 306 304 303 302 304 303 303 302 297 298 296 291 290 290 290 290 290 291 290 289 289 289 288 287 285 284 283 281 280 279 279 278 278 279 280 282 285
309 307 305 306 307 306 306 303 306 306 305 308 300 300 303 299 297 295 290 289 289 289 289 288 288 288 289 288 288 287 286 285 283 282 280 279 279 278 278 278 278 279 280 282
310 313 307 304 305 306 306 302 306 307 306 308 300 303 302 295 293 291 290 289 289 289 288 288 288 288 288 288 287 286 285 284 282 281 280 279 278 277 276 277 277 277 277 279
310 310 300 298 300 302 303 302 301 303 288 295 299 298 296 294 293 291 290 289 288 289 289 288 288 288 288 288 287 286 284 283 281 280 279 278 277 276 275 276 275 276 278 278
307 309 301 297 298 297 299 299 301 301 307 298 300 301 302 294 293 291 290 289 289 290 289 287 287 288 288 287 286 285 283 281 280 279 278 278 277 276 275 274 275 275 275 276
303 304 304 298 298 299 294 297 297 298 302 304 300 304 296 295 294 291 290 289 289 288 288 287 287 287 287 286 284 283 282 280 278 277 277 277 276 275 274 273 273 273 275 275
301 301 301 301 297 296 296 298 299 302 303 298 299 301 296 295 293 290 289 289 289 289 288 286 286 286 285 284 283 282 280 278 277 276 275 275 275 274 273 273 272 272 272 274
298 300 301 309 295 293 294 293 295 296 297 300 300 301 294 293 291 290 288 288 289 288 287 286 285 284 284 282 281 280 278 277 275 274 274 274 274 273 273 272 272 272 272 272
300 301 309 315 313 299 298 292 294 296 300 301 301 301 296 293 292 289 288 288 287 287 287 285 283 283 282 281 280 278 276 275 274 273 273 273 273 273 272 272 271 271 271 272
298 300 301 303 303 302 303 302 296 295 297 300 302 301 300 298 296 293 288 288 288 288 286 284 283 282 281 280 278 276 275 273 273 272 272 273 272 272 271 271 271 271 271 272
297 301 302 304 302 302 302 300 298 297 297 297 297 297 298 296 291 287 288 288 288 287 285 284 283 281 280 278 276 275 273 272 271 271 272 272 271 271 270 269 270 270 270 271
299 299 301 308 302 299 301 300 299 299 298 298 296 297 297 295 291 289 288 288 287 285 284 282 281 279 277 276 275 273 272 271 270 271 271 270 271 269 269 268 268 269 269 270
300 301 300 301 300 305 304 293 296 298 297 297 296 296 294 290 289 288 287 285 285 283 282 280 278 277 275 274 273 271 270 270 269 270 270 270 268 268 267 267 267 268 268 269
302 302 300 302 301 302 302 300 291 292 299 294 295 295 293 289 288 287 284 283 282 281 279 278 276 275 273 272 271 269 269 268 268 269 268 268 267 265 265 266 267 268 269 270
299 301 303 297 299 299 297 289 288 290 295 290 292 291 289 288 287 287 283 282 280 278 277 275 274 273 272 270 269 268 267 267 267 267 266 265 264 264 265 267 269 269 271 272
298 298 299 300 300 298 295 289 289 293 299 289 289 288 288 289 288 285 282 280 278 277 275 274 272 271 270 269 267 266 266 265 265 264 264 263 263 264 267 267 268 269 271 273
298 298 297 298 297 299 293 289 293 293 290 289 288 288 288 287 284 283 281 278 276 275 273 272 271 269 268 267 265 265 264 264 263 262 261 261 263 265 266 267 268 269 271 274
302 299 296 297 298 294 291 291 291 291 290 289 288 288 288 287 285 282 279 277 275 273 272 270 268 267 266 265 264 263 262 261 261 259 259 262 264 264 265 266 267 268 270 273
295 297 298 296 298 294 291 291 291 290 290 289 288 287 286 285 283 280 278 276 274 272 270 268 266 266 265 263 262 261 260 259 258 258 261 264 264 264 265 265 266 268 269 271
298 296 297 297 296 294 292 291 290 290 289 287 285 284 285 283 281 279 276 274 272 270 268 266 265 264 263 262 260 259 258 257 257 258 261 263 263 263 264 264 264 266 268 270
295 297 298 299 297 297 296 293 291 290 288 287 284 282 281 281 279 276 274 272 270 268 266 264 263 262 261 259 259 258 258 257 256 258 261 262 262 263 263 263 263 264 266 267

GFSCGP_925_thetae_012.txt.gz
Theta_e
312 313 315 313 308 309 308 307 306 306 309 309 308 309 304 303 297 294 292 291 290 290 291 291 291 291 291 290 290 289 289 289 288 287 286 285 285 284 284 283 283 283 286 287
311 314 313 311 308 308 308 309 308 307 307 307 307 306 305 302 300 297 294 290 289 290 289 290 291 291 291 290 290 289 289 289 287 286 285 284 283 283 282 282 281 281 281 282
314 314 307 309 308 308 308 310 308 308 306 304 304 304 306 302 299 294 293 291 289 289 289 289 290 291 290 290 289 289 288 288 286 285 284 283 282 282 282 281 280 280 280 280
309 308 308 308 308 308 308 306 306 306 305 305 303 306 304 298 299 295 293 289 289 289 289 289 290 290 290 290 289 289 288 287 286 285 283 282 281 281 281 280 279 279 279 279
313 306 307 307 307 307 307 304 304 305 304 304 303 303 303 298 299 296 294 290 288 288 288 288 290 290 290 289 289 288 287 286 286 284 283 282 280 280 279 279 279 278 278 278
309 305 305 306 307 306 305 305 304 302 301 304 303 303 302 297 299 298 295 289 289 288 287 288 290 290 290 289 288 288 286 286 285 284 282 281 280 279 279 278 278 278 277 278
309 307 305 306 307 306 306 303 308 308 304 310 299 301 308 301 297 297 295 290 288 287 287 288 288 288 289 288 288 287 286 285 284 283 281 280 279 278 278 278 277 277 276 277
311 312 305 304 305 307 305 303 309 310 310 314 301 304 304 295 293 295 294 290 288 287 287 287 287 288 288 287 287 286 285 284 283 282 280 279 278 278 277 277 276 276 276 275
309 309 300 300 301 302 303 302 301 303 286 295 300 299 299 292 291 289 289 289 288 287 287 287 287 288 287 287 287 285 284 283 282 280 279 278 277 276 277 276 276 275 275 274
309 310 301 297 298 298 301 299 302 300 308 306 303 302 306 293 291 289 289 289 287 287 287 287 287 287 287 287 286 284 283 282 280 279 277 276 276 275 276 275 275 275 274 274
302 307 303 297 298 302 296 298 297 299 307 309 309 313 298 296 294 290 290 289 288 288 287 287 286 287 287 286 284 283 281 280 279 277 276 275 274 274 275 274 274 274 273 273
302 302 305 300 298 295 299 300 300 304 306 303 305 311 295 296 295 292 290 289 287 287 287 286 286 286 285 284 282 281 280 278 277 276 274 274 273 273 274 274 274 273 273 273
300 302 304 307 300 294 295 294 299 298 299 306 305 311 294 293 291 291 289 288 287 287 286 286 285 284 283 282 281 279 278 277 275 274 273 272 272 273 273 273 273 272 272 272
303 302 308 313 311 300 297 293 294 300 304 306 306 306 305 296 292 289 288 287 287 286 286 285 283 282 282 280 279 278 276 275 274 272 272 271 272 272 273 272 272 271 270 270
300 304 302 307 308 303 305 307 296 298 301 305 308 308 307 306 300 290 289 287 286 286 286 284 283 281 280 279 277 276 275 273 272 271 271 271 272 272 272 271 270 270 269 269
296 304 302 304 304 302 304 305 304 304 304 304 304 304 304 303 294 289 288 287 288 287 285 284 283 281 279 277 276 275 273 272 271 270 271 271 271 271 270 269 268 268 268 268
297 300 304 310 305 303 305 305 304 305 304 304 304 304 303 300 291 289 287 288 288 286 284 282 280 278 277 275 274 272 271 270 270 270 269 269 270 269 268 267 267 267 267 268
299 301 304 308 303 308 310 297 300 302 302 301 301 301 298 293 290 288 288 287 286 284 282 280 278 276 275 273 272 270 270 269 269 268 268 268 268 267 266 266 265 266 268 269
304 306 309 308 310 308 308 305 296 296 303 298 300 300 298 288 287 287 285 284 283 281 279 277 275 274 273 271 270 269 268 268 267 267 267 266 266 265 264 264 265 267 267 268
301 302 308 302 304 309 310 290 289 293 300 298 297 297 289 288 290 287 283 282 280 278 277 275 274 273 271 270 268 267 267 266 266 265 265 264 264 263 263 265 266 266 267 268
300 301 306 308 309 301 300 289 290 300 307 292 293 291 289 290 290 286 282 280 279 277 275 273 273 271 269 268 267 266 266 265 264 263 263 262 262 262 265 265 265 266 267 268
300 301 300 303 301 305 295 289 297 297 290 289 288 288 289 286 284 284 282 279 277 275 273 272 271 269 268 267 265 265 264 263 262 262 260 260 261 264 264 264 265 265 266 268
306 304 301 300 301 297 293 292 293 291 290 289 289 288 288 285 284 282 280 278 276 274 273 271 269 268 267 265 264 263 263 261 260 259 259 261 263 264 264 264 265 265 266 267
296 298 301 300 303 298 292 293 292 290 291 290 289 288 287 287 284 282 279 277 275 273 271 269 267 266 265 264 263 262 260 259 258 258 259 262 263 263 263 264 264 265 266 266
302 299 302 301 302 298 298 293 292 291 290 289 288 287 288 286 285 282 279 276 274 272 269 267 266 265 264 262 261 260 259 257 257 258 260 261 262 262 263 263 263 265 265 267
299 304 303 307 302 303 302 293 292 291 290 289 288 286 284 286 283 280 277 274 272 270 267 265 264 263 262 261 260 259 258 257 257 257 258 260 260 261 262 262 262 263 265 266

GFSCGP_925_thetae_015.txt.gz
Theta_e
311 312 312 312 309 311 308 307 306 305 307 309 308 308 309 302 299 298 293 293 293 290 290 291 290 290 290 289 289 289 288 288 287 286 285 285 283 284 283 283 283 283 283 282
311 313 312 311 308 308 307 308 307 306 306 306 306 306 306 303 301 300 297 294 293 289 288 289 289 290 290 289 289 289 288 288 287 286 285 284 283 282 282 281 281 281 281 281
313 313 308 309 308 308 307 308 307 308 304 303 301 302 304 303 301 300 298 295 292 290 289 288 288 289 290 289 289 289 288 287 287 286 285 284 283 282 281 280 280 280 280 280
310 308 308 307 308 306 307 306 307 306 304 306 303 309 304 303 301 298 297 292 292 289 289 288 288 289 290 289 289 288 288 287 286 285 284 283 282 281 280 280 279 279 279 279
314 306 306 306 306 305 308 304 305 304 304 303 303 303 303 299 301 302 296 293 292 290 289 287 288 290 290 289 289 288 288 286 286 285 283 282 281 280 279 279 278 278 279 279
309 305 304 306 305 305 304 305 303 299 300 305 304 304 303 302 302 300 296 294 291 289 287 287 289 290 290 289 288 288 287 286 285 284 283 281 280 280 279 278 278 278 278 278
309 306 305 305 307 305 304 305 311 311 305 311 300 300 308 306 302 298 297 293 290 289 287 287 286 288 289 288 288 288 287 285 284 283 282 280 279 278 278 277 277 277 277 277
313 314 305 304 305 308 304 306 311 310 310 311 301 306 306 299 294 292 293 293 290 288 287 287 286 288 288 288 287 287 285 284 283 281 280 279 278 277 277 276 276 276 276 276
309 309 300 301 302 304 304 304 303 305 285 297 305 301 300 294 292 290 292 290 289 288 287 287 287 288 288 287 287 286 284 283 281 280 279 278 277 276 275 275 275 275 276 276
309 311 301 297 299 296 301 299 303 300 303 304 306 305 309 303 297 290 289 289 288 287 286 286 286 287 287 287 287 285 283 281 280 279 277 276 275 275 274 274 274 275 275 274
304 308 303 298 300 302 297 299 299 300 305 307 304 311 302 304 299 292 290 290 288 287 287 286 286 287 287 286 285 283 281 280 279 277 276 275 274 273 273 273 274 274 274 274
303 305 306 301 296 295 299 301 302 305 303 300 304 311 299 298 298 291 290 290 288 287 286 285 286 286 285 285 283 282 280 278 277 276 274 273 273 272 272 273 273 273 273 273
302 305 304 307 302 296 295 296 299 298 301 307 307 311 295 296 294 291 290 289 288 287 285 285 284 284 284 283 282 280 278 277 275 274 273 272 272 272 272 272 272 272 272 272
306 305 308 312 309 299 297 296 296 302 304 309 309 308 307 305 301 293 290 288 287 286 286 285 283 282 282 282 280 278 277 275 273 272 271 271 271 271 272 271 272 271 271 270
303 309 304 309 310 303 305 306 295 298 303 307 309 309 308 307 307 303 295 289 287 287 286 284 283 281 281 280 278 277 275 273 272 271 271 271 271 271 271 270 270 269 269 268
297 308 304 308 306 304 306 307 306 302 304 305 306 307 307 307 306 304 294 288 287 287 286 285 283 282 280 279 277 275 273 271 271 270 270 270 270 270 269 269 268 268 267 267
297 300 301 311 307 306 308 309 308 308 308 308 308 308 307 306 298 295 291 289 288 287 286 284 282 280 279 276 274 272 271 271 270 270 269 269 269 268 267 267 266 266 266 267
297 299 304 308 305 312 310 304 305 306 306 306 307 307 306 305 295 294 289 288 288 287 285 283 279 277 276 274 272 271 270 269 269 268 268 267 267 266 266 265 265 265 267 267
303 303 308 310 311 310 310 306 301 303 308 304 304 304 304 292 289 289 287 287 287 285 282 279 278 276 273 272 270 270 269 268 267 267 266 266 265 264 264 263 264 266 266 266
300 304 310 312 313 316 311 295 293 297 304 306 303 302 301 290 293 299 285 283 282 280 278 276 275 273 272 270 269 269 268 266 266 265 265 264 264 263 262 263 265 265 265 266
304 304 309 312 315 313 309 291 293 304 310 299 298 299 290 293 295 289 283 281 280 278 275 275 273 271 270 269 268 267 266 266 264 263 263 263 263 262 263 264 264 264 265 265
306 306 307 308 312 313 295 290 302 304 293 293 293 290 291 288 285 285 283 279 278 276 275 273 271 270 268 267 267 266 265 263 263 262 263 263 263 262 263 263 264 264 264 265
312 309 310 308 309 301 295 304 297 294 294 290 291 289 290 286 285 284 281 278 276 275 274 272 270 269 267 266 265 264 263 262 261 262 263 262 262 262 263 263 264 264 265 265
304 301 306 302 306 301 295 295 292 292 292 290 289 289 288 287 284 283 280 278 276 275 272 270 269 268 266 264 264 262 262 261 261 261 261 261 261 261 262 263 263 264 265 266
310 301 306 305 305 301 302 299 295 293 290 289 288 288 288 286 285 282 281 278 276 274 271 269 268 267 264 263 263 262 261 260 260 260 260 260 260 261 261 262 262 264 265 267
304 308 307 310 309 308 309 302 296 292 291 290 288 288 287 287 285 283 281 277 275 272 269 267 266 264 263 263 262 261 260 260 259 258 259 259 259 260 261 261 261 262 264 266

GFSCGP_925_thetae_021.txt.gz
Theta_e
309 311 311 310 309 310 310 311 310 307 305 307 305 307 309 308 301 302 300 297 296 296 296 293 291 290 290 290 289 289 289 289 289 288 287 286 286 286 286 286 285 284 283 282
310 312 309 309 308 309 308 309 307 306 304 304 305 306 307 306 308 307 304 300 297 297 293 290 289 289 289 290 289 289 289 288 288 287 287 286 285 285 285 285 284 283 283 282
310 311 307 309 308 308 307 307 307 308 304 302 301 303 303 303 303 303 303 301 298 298 295 291 289 288 288 289 289 289 288 288 287 287 286 285 284 284 284 284 284 284 283 283
310 308 309 308 309 307 310 305 306 306 305 308 303 310 305 305 306 305 305 300 300 297 296 292 290 288 287 288 289 289 288 287 287 286 286 285 283 282 283 282 282 282 281 280
311 307 307 309 309 305 309 303 304 304 304 302 304 305 306 301 305 307 306 301 299 296 295 293 290 289 288 288 289 289 288 287 286 286 285 284 283 282 282 281 280 280 279 280
308 304 305 307 303 304 302 304 301 298 300 306 307 307 305 304 305 305 304 302 299 295 293 292 290 289 288 288 289 288 288 288 286 285 284 283 283 282 281 280 278 277 278 279
310 306 304 304 307 304 304 307 311 309 307 311 300 303 308 306 303 304 307 303 297 294 291 290 289 288 287 287 288 288 288 287 287 285 284 283 282 281 279 278 277 277 277 278
311 311 304 303 307 308 303 307 311 307 307 308 299 306 308 302 305 301 299 297 293 292 289 289 289 288 288 287 287 288 287 287 286 284 284 282 281 280 279 277 276 276 276 276
310 310 301 301 301 303 304 306 305 306 287 301 307 305 304 302 301 299 298 293 293 292 289 288 288 288 287 287 287 287 287 287 285 284 283 281 280 279 278 277 276 276 276 275
311 312 302 298 298 297 302 300 306 305 308 305 308 307 308 306 305 303 301 299 295 292 288 287 287 287 287 287 287 287 287 286 284 283 281 280 279 278 277 276 277 275 275 275
308 312 307 300 301 302 300 301 300 303 305 307 308 310 303 305 304 304 303 299 296 293 289 287 287 287 286 286 287 286 286 284 283 281 280 278 277 277 276 275 275 274 274 274
306 310 314 311 298 296 300 303 303 307 306 301 303 310 306 305 303 301 302 298 295 292 289 287 286 286 285 285 284 284 284 283 281 280 278 277 276 275 275 275 274 273 273 273
305 309 313 312 302 298 300 299 300 301 302 307 307 309 304 301 301 299 300 295 294 292 288 286 285 285 286 284 283 283 283 281 279 278 277 276 275 274 274 273 273 273 272 272
308 309 313 311 308 302 302 299 301 304 308 309 308 308 308 308 306 303 299 294 294 292 290 286 285 286 286 283 282 281 280 279 278 276 276 275 274 273 273 272 272 271 271 270
306 311 311 312 311 306 304 304 302 303 305 307 308 307 307 308 307 306 306 305 302 291 288 286 286 286 284 282 281 280 279 277 276 275 274 274 273 272 272 271 271 270 270 269
301 310 310 310 309 309 309 307 308 306 305 305 306 306 306 306 306 306 306 305 304 300 291 288 286 285 283 282 279 278 276 276 275 274 273 272 271 271 271 270 269 269 269 268
302 305 304 311 309 307 307 308 309 308 308 308 309 308 307 306 306 306 305 305 304 303 292 288 286 285 284 281 278 276 275 274 273 273 272 271 270 270 270 269 269 269 268 267
306 303 307 310 308 311 309 306 305 306 307 307 307 307 307 307 307 307 304 305 304 298 291 287 285 284 281 278 277 276 274 273 272 271 270 270 269 269 268 268 268 268 266 267
307 308 310 311 312 310 309 307 304 304 307 306 307 306 306 306 302 304 296 297 300 295 288 285 284 279 276 275 274 273 272 272 271 270 269 268 268 268 267 268 267 266 266 266
308 307 309 312 312 313 308 306 305 304 308 307 307 307 307 305 306 307 303 294 289 285 284 281 278 276 274 272 273 272 270 270 269 268 268 268 267 267 267 266 266 266 265 265
305 309 311 311 313 312 308 307 301 307 310 308 305 305 305 305 305 298 285 284 283 282 279 277 276 275 272 272 272 270 269 269 268 268 267 267 267 267 266 265 265 265 264 264
310 309 310 311 311 312 306 305 307 309 308 308 305 302 302 301 299 290 285 282 280 278 278 276 274 272 271 271 272 270 269 267 267 267 267 267 266 267 266 265 266 265 263 263
312 310 312 310 310 305 302 307 307 307 307 307 303 300 300 298 294 288 284 280 279 278 276 275 273 271 270 270 271 269 266 266 266 266 266 266 266 266 266 265 265 263 263 264
308 308 310 310 309 305 302 304 305 305 306 306 303 301 294 297 291 287 282 280 279 277 275 273 272 271 269 269 269 269 266 266 265 265 265 265 266 266 265 265 263 262 263 265
310 307 309 309 308 308 307 306 306 305 299 298 299 297 296 294 290 288 283 280 279 277 275 273 272 271 269 267 266 265 265 265 264 264 263 263 264 265 264 263 262 263 265 267
309 310 311 312 309 309 309 308 307 306 306 304 300 294 293 294 292 286 284 281 279 276 274 273 272 270 267 265 264 264 264 264 264 263 262 262 262 262 262 262 262 263 265 266

GFSCGP_925_thetae_024.txt.gz
Theta_e
315 317 318 317 317 316 313 314 316 318 311 312 314 314 314 313 313 312 312 313 311 307 305 302 299 296 293 293 292 292 292 291 290 290 290 289 290 289 288 287 287 285 285 284
315 316 317 315 313 314 315 317 318 317 309 309 313 312 312 311 312 312 313 313 312 309 305 303 299 295 292 292 292 291 291 291 290 290 289 289 289 288 287 286 286 285 285 284
315 315 311 313 314 314 315 317 318 315 310 308 308 312 311 311 309 310 310 311 311 309 307 303 298 295 293 292 291 291 291 291 290 289 288 287 287 286 286 287 286 285 284 283
314 312 312 313 315 314 317 314 313 312 312 317 308 316 315 313 312 310 313 313 310 307 305 303 299 296 294 293 291 291 290 290 289 288 288 288 288 289 288 286 285 284 283 282
314 312 311 314 315 313 316 307 309 309 311 309 314 312 313 307 310 311 312 313 310 308 305 303 300 297 295 292 291 291 290 289 288 288 288 288 287 287 286 285 284 283 282 282
313 306 309 313 305 307 305 308 308 306 309 315 315 314 313 311 311 311 312 312 309 306 304 303 300 296 294 292 291 291 290 289 288 287 287 287 287 286 285 284 283 282 282 281
313 312 307 306 310 306 308 313 317 321 319 318 309 309 311 310 310 311 313 313 307 305 303 302 299 295 294 291 290 290 290 289 288 288 287 286 286 285 284 283 282 281 281 281
316 315 309 308 313 316 310 314 321 322 318 317 307 310 312 310 310 310 307 307 304 303 301 300 298 296 293 291 290 290 289 289 288 287 286 285 284 283 282 281 281 280 280 279
314 315 304 303 304 308 309 313 311 317 306 314 314 314 312 309 308 307 306 306 307 304 301 299 297 295 294 291 291 290 290 289 288 287 286 284 283 282 281 280 279 279 278 278
313 315 307 300 301 300 306 306 312 313 321 320 316 316 315 312 310 309 307 307 309 305 302 299 297 294 293 292 291 290 290 289 288 287 285 283 282 280 279 278 278 278 277 277
311 315 311 303 305 311 304 308 306 307 311 317 317 314 310 310 309 309 309 310 310 306 304 301 297 294 293 292 291 290 289 289 287 285 283 282 280 279 278 277 277 277 276 276
310 314 317 314 301 300 304 309 309 313 314 311 313 314 308 310 309 308 308 307 306 304 304 302 297 294 292 291 291 290 289 288 286 283 282 280 279 278 277 277 276 276 276 276
308 313 319 317 305 300 305 304 307 309 310 313 316 313 310 309 309 309 308 308 305 305 303 300 296 294 292 291 290 289 288 286 283 281 280 278 277 277 276 276 275 275 275 275
310 314 315 314 312 308 308 305 305 308 312 313 313 312 311 311 310 310 309 306 305 305 302 302 298 294 292 290 289 288 286 284 281 279 278 278 277 276 275 275 274 274 274 273
310 314 314 314 314 312 312 310 309 307 308 310 311 311 311 310 310 310 309 309 308 307 302 302 299 295 292 290 287 286 283 281 279 278 277 277 276 275 274 274 274 273 273 272
307 312 311 312 311 312 312 312 311 311 311 311 309 309 308 308 308 308 308 308 307 306 306 303 298 294 291 289 286 283 281 279 277 277 276 275 274 273 273 273 273 272 271 271
307 309 312 315 313 312 313 312 311 311 311 310 311 311 311 310 310 309 309 308 307 306 305 304 296 292 290 287 284 282 279 276 276 276 275 274 273 273 272 272 271 270 271 270
309 309 311 313 313 313 312 310 310 310 310 310 310 310 310 309 309 308 308 308 307 306 306 302 296 292 288 286 283 280 277 275 275 275 274 273 272 272 271 270 269 270 270 270
310 310 311 312 314 312 309 309 309 309 310 309 309 308 308 308 307 308 307 307 307 307 306 303 294 290 286 283 279 276 275 275 274 274 273 271 271 270 269 269 269 269 269 269
309 309 310 312 313 315 311 309 308 307 309 309 308 308 308 307 309 310 309 305 303 296 291 289 287 283 281 278 277 276 275 274 274 273 271 270 270 269 269 268 268 268 267 268
309 311 311 312 314 314 310 308 305 311 312 309 308 308 308 308 308 308 297 295 290 288 285 282 281 280 278 276 276 276 274 274 273 271 269 269 268 269 268 268 268 268 267 267
313 313 312 311 313 314 310 309 309 311 311 311 310 306 305 305 304 304 294 290 286 284 282 280 279 278 276 276 276 275 274 272 270 269 268 268 268 267 267 267 267 266 266 267
314 312 313 312 313 310 310 310 310 309 310 310 309 308 305 305 303 301 292 287 286 283 281 279 277 275 275 275 275 275 271 269 268 267 267 267 267 267 267 266 266 267 266 268
312 311 312 312 311 310 309 309 309 309 309 309 308 306 302 305 303 298 293 287 283 281 279 278 276 276 274 274 274 272 268 268 267 267 266 266 266 266 265 266 266 266 267 268
304 305 308 308 306 309 310 309 306 305 304 303 303 302 304 304 301 300 295 289 284 281 279 277 277 276 274 272 270 268 267 268 267 267 266 266 265 266 265 265 265 266 267 268
301 304 305 306 305 307 308 308 308 308 307 307 306 305 303 300 303 302 298 290 284 281 278 277 276 275 272 270 268 267 267 267 267 266 265 265 265 265 264 265 265 265 265 267

GFSCGP_925_thetae_027.txt.gz
Theta_e
316 317 319 318 319 319 318 318 317 317 316 316 317 317 317 318 317 317 317 316 316 315 315 311 307 305 302 300 299 296 295 294 294 293 292 292 292 292 291 290 289 288 288 287
317 317 318 317 318 318 318 318 317 318 317 314 316 317 317 317 317 316 316 315 315 315 315 312 308 305 301 299 297 296 295 295 293 293 293 293 293 292 291 290 289 288 287 286
317 316 315 316 317 317 316 317 317 317 317 312 313 315 316 315 315 314 314 314 314 314 315 312 308 304 301 298 297 296 295 294 293 293 293 291 291 290 289 289 289 288 287 286
315 315 315 315 315 315 317 316 317 318 318 318 313 317 317 316 316 315 315 315 315 315 314 312 308 304 301 298 297 295 295 294 293 292 292 291 290 291 291 291 289 288 286 285
314 316 315 316 316 315 316 311 314 316 317 317 316 317 316 314 314 313 314 314 315 315 312 309 307 304 301 298 297 295 294 293 293 292 291 291 291 291 291 289 288 287 286 285
314 310 313 315 310 311 310 312 313 312 314 318 316 317 316 316 313 313 312 312 314 312 310 308 306 303 301 299 297 295 294 293 293 292 291 290 290 291 290 289 288 287 286 285
316 315 313 310 313 309 311 315 318 323 322 321 317 317 316 315 313 313 313 313 313 311 309 308 306 303 301 299 296 295 294 293 292 291 291 290 290 290 289 288 287 287 286 285
318 317 315 310 314 317 312 316 321 325 321 320 316 316 315 315 314 313 312 313 311 309 309 308 306 304 301 298 296 295 294 294 292 291 290 290 289 289 288 287 286 285 284 284
315 315 308 309 308 313 313 314 315 320 321 321 315 315 316 314 313 312 312 310 311 309 308 307 306 303 301 298 296 295 294 294 292 291 290 289 288 287 286 285 284 283 283 282
314 316 312 304 305 306 310 310 315 315 322 320 317 320 320 318 315 313 311 311 311 312 310 307 305 303 301 299 296 295 294 294 293 291 290 289 287 286 285 284 283 282 281 281
314 315 313 306 308 312 307 310 309 310 316 321 321 318 314 314 315 314 313 311 311 313 310 308 305 302 300 299 296 295 294 293 292 291 289 288 286 285 284 282 281 281 280 279
312 316 316 315 311 305 309 313 313 314 315 313 315 316 311 313 312 313 312 311 312 311 311 310 307 303 300 298 297 295 294 293 292 290 289 287 285 283 282 281 280 280 279 278
311 314 318 316 310 304 308 309 309 312 312 314 317 315 312 312 313 310 309 310 310 309 309 310 307 304 301 298 297 295 294 293 291 290 288 285 283 281 280 280 279 278 278 278
310 314 315 314 313 311 312 310 310 310 314 314 313 313 313 312 313 313 312 311 311 311 309 308 307 304 301 299 296 294 293 292 290 288 285 283 281 280 279 279 278 278 277 276
311 313 313 313 312 311 311 311 310 310 311 312 313 312 313 313 313 313 311 311 310 309 308 308 305 306 302 298 295 293 292 291 288 285 283 281 280 279 278 278 277 276 276 275
310 313 312 313 312 312 312 312 312 312 312 312 311 311 310 310 310 310 310 310 310 309 309 307 306 304 299 296 294 292 291 289 285 283 281 280 278 278 277 277 276 275 274 274
310 311 313 314 314 314 315 314 313 312 312 312 313 313 314 314 312 312 312 311 311 310 308 306 306 304 298 295 292 290 289 285 282 281 280 278 277 277 276 275 274 274 273 273
310 310 313 315 314 315 314 312 312 313 313 313 314 313 313 312 312 311 311 311 310 307 306 306 306 305 298 294 291 288 285 282 280 279 278 277 276 275 275 274 273 273 273 273
311 312 313 315 315 314 313 312 312 313 313 312 312 312 312 311 310 310 310 309 308 308 307 302 300 300 295 291 288 285 281 280 279 278 277 276 275 274 273 272 272 272 272 272
311 311 313 314 316 317 313 312 311 311 312 311 310 311 310 310 311 310 309 307 306 297 296 294 292 291 290 287 284 281 279 279 279 278 276 274 274 273 272 272 272 272 271 271
312 311 313 314 315 315 312 311 310 314 313 310 309 309 310 310 310 310 303 301 298 296 292 290 288 288 287 283 280 280 279 279 278 276 274 273 272 272 272 271 271 270 270 270
315 314 313 313 314 315 311 311 311 312 311 311 311 310 309 308 308 307 307 301 295 292 288 287 285 283 280 280 280 279 278 278 275 274 272 271 271 270 270 270 269 269 269 269
315 314 314 313 313 310 310 310 311 311 311 311 310 310 309 307 306 305 303 298 294 292 287 284 283 281 279 279 280 279 277 273 272 271 270 270 270 270 269 268 269 269 269 270
302 303 304 303 308 304 304 304 306 309 309 307 306 305 305 306 305 303 301 298 294 289 286 283 281 279 278 278 279 278 273 272 271 270 269 268 268 268 268 268 268 270 270 270
299 299 300 302 303 303 302 303 305 306 306 306 306 306 307 307 306 304 303 301 296 290 285 282 280 279 278 278 277 273 271 271 270 270 269 268 268 268 268 269 268 269 269 270
293 294 295 298 298 299 300 299 298 299 300 301 302 303 303 303 304 303 302 301 299 289 284 281 280 279 277 276 272 270 270 271 270 269 269 268 268 268 268 268 266 267 268 268

GFSCGP_925_thetae_030.txt.gz
Theta_e
315 315 315 315 316 316 316 317 317 317 316 315 314 315 315 315 313 313 314 314 312 312 311 312 310 309 307 305 301 299 297 295 295 295 294 293 293 292 292 291 291 291 290 289
316 316 316 316 316 316 316 316 316 316 315 314 314 315 314 314 314 314 314 313 313 311 310 308 308 308 306 303 301 299 297 295 295 294 293 293 292 292 292 291 291 290 289 289
314 316 316 316 316 315 315 315 315 315 314 312 313 313 313 312 313 313 313 312 312 310 309 307 306 305 305 302 300 298 297 296 294 294 293 293 293 293 292 291 290 289 289 288
314 314 315 314 314 314 314 314 315 315 314 315 313 314 314 314 313 312 311 310 310 308 308 307 305 304 303 301 300 298 296 296 295 294 293 293 292 291 291 291 290 289 288 288
314 314 314 315 314 313 314 312 313 314 315 316 316 315 313 312 312 312 311 310 311 311 308 306 305 304 302 301 299 298 296 296 295 294 293 293 292 292 292 290 290 289 288 287
312 311 312 314 310 312 310 312 312 312 312 314 313 314 313 312 312 312 310 309 309 308 307 306 305 304 302 301 299 297 296 296 295 294 293 293 292 291 291 291 289 289 288 287
312 312 312 310 313 309 311 314 316 318 315 316 312 313 314 313 310 309 309 309 308 307 305 304 302 301 301 299 298 297 296 295 295 294 293 292 292 291 291 290 289 288 287 286
316 317 313 309 312 315 310 313 317 317 315 315 314 313 313 312 311 309 308 309 307 306 305 304 302 301 301 300 298 297 295 294 294 294 293 292 291 291 291 290 290 289 288 287
313 313 308 309 309 312 312 312 314 315 308 312 313 311 312 311 310 309 309 308 306 305 304 304 303 301 301 300 298 297 295 294 293 293 292 292 291 291 291 290 289 288 287 286
313 314 310 305 305 306 308 309 313 314 311 311 311 309 312 313 313 308 308 307 307 306 304 303 302 301 301 300 299 297 295 294 294 293 292 291 290 290 290 289 288 287 286 285
312 313 310 305 306 309 306 308 309 310 315 313 312 313 308 313 313 310 307 308 307 307 305 303 302 302 302 300 299 297 295 294 294 293 292 291 290 290 289 288 287 286 285 284
311 314 316 312 309 306 308 310 309 312 313 311 312 316 309 310 311 309 308 308 307 307 305 303 302 300 300 300 298 297 295 294 294 293 292 291 290 289 287 287 286 285 284 283
310 314 316 314 311 304 307 308 310 311 311 314 315 314 310 311 310 307 306 305 306 306 305 304 303 300 299 298 298 296 295 294 294 293 291 290 288 287 285 285 284 283 282 281
312 313 314 316 313 311 311 309 308 309 312 313 312 312 311 311 310 310 310 309 305 305 304 303 302 300 298 298 297 296 295 294 293 292 290 288 286 285 284 284 283 282 281 280
310 314 313 313 313 312 311 311 310 310 309 310 310 310 310 310 310 310 310 309 308 307 307 306 302 301 299 297 297 296 295 294 293 291 289 287 284 283 283 283 281 280 279 279
310 312 311 312 311 311 311 310 311 310 310 311 310 309 309 309 309 309 308 308 308 309 308 304 302 299 297 295 296 295 293 292 292 289 287 285 282 281 282 280 279 279 278 277
310 311 312 314 311 312 314 312 312 311 310 310 311 310 310 310 310 310 310 310 310 309 307 303 300 298 296 297 298 293 292 291 290 287 284 282 280 280 279 279 278 277 277 276
310 310 313 317 315 316 312 311 311 311 311 310 310 310 311 311 310 310 310 310 308 307 305 301 298 299 301 301 296 293 291 289 286 283 282 280 279 279 278 277 277 276 276 275
314 315 316 316 316 314 312 311 311 312 312 311 311 311 311 310 310 311 310 309 308 308 303 300 299 300 300 295 292 290 286 284 283 282 280 278 278 277 277 276 276 275 274 274
312 313 316 317 317 318 313 311 310 309 312 310 310 311 310 310 312 311 309 305 303 302 300 297 294 295 293 290 289 285 282 282 281 280 279 278 278 277 276 275 275 274 274 274
312 313 315 316 317 315 311 310 307 312 313 310 310 309 309 308 308 307 303 303 302 300 295 293 291 289 289 287 285 283 281 281 281 279 277 277 277 276 276 275 274 274 273 272
313 314 314 314 315 316 305 308 311 305 306 307 306 305 306 305 303 302 301 300 298 297 291 289 287 286 286 285 283 282 280 280 279 277 276 275 275 275 274 273 272 272 271 271
304 301 301 302 304 302 300 300 301 301 304 301 300 300 301 302 302 301 300 299 297 295 291 288 286 283 283 282 282 281 280 279 277 275 274 273 273 273 272 272 271 270 271 271
294 295 296 298 299 296 296 298 300 300 298 299 299 300 301 302 301 301 298 298 297 294 291 286 283 282 280 280 281 281 279 276 274 274 272 272 272 270 271 271 270 270 270 271
291 291 290 290 290 291 292 293 294 296 295 294 293 293 294 295 297 299 300 299 298 295 288 285 284 284 281 279 280 280 276 274 274 272 271 271 271 270 269 270 270 271 271 271
290 289 289 289 290 291 291 291 291 290 289 287 288 290 292 293 294 295 296 296 297 298 291 284 283 283 281 278 279 276 274 274 273 272 271 271 270 270 270 270 270 271 270 271

GFSCGP_925_thetae_033.txt.gz
Theta_e
311 310 312 311 312 311 311 312 312 312 313 313 313 313 313 312 308 310 311 310 308 308 310 310 309 308 307 305 303 301 298 298 298 297 296 296 295 294 293 293 293 292 292 292
312 312 311 311 311 312 312 313 314 313 313 312 312 313 311 312 312 309 311 311 311 311 307 306 307 306 305 304 302 299 299 299 298 297 296 294 294 294 293 293 292 292 291 291
312 312 313 313 313 314 314 313 313 312 312 310 310 311 311 311 312 311 311 311 311 311 308 305 302 304 303 301 300 299 298 299 297 296 295 294 294 293 293 292 291 291 291 290
311 311 312 312 314 314 315 311 312 313 313 314 310 314 310 311 311 311 311 311 310 310 305 304 303 303 302 301 300 299 298 298 297 296 295 294 293 292 292 291 291 291 290 290
312 312 311 313 312 310 313 311 311 312 312 313 313 313 313 310 310 310 310 310 311 308 304 303 303 304 302 301 300 299 298 297 296 296 295 294 292 292 292 292 291 291 290 289
310 309 311 311 310 311 310 312 311 310 309 313 312 314 313 309 312 310 310 309 309 306 305 303 304 304 301 300 299 297 296 296 295 295 294 294 292 292 292 291 291 290 290 289
309 309 309 309 311 309 311 312 313 314 312 315 310 312 313 310 309 309 310 310 309 305 304 302 300 299 299 298 297 297 296 295 295 295 294 293 293 292 292 292 290 289 289 288
312 311 309 308 311 311 310 313 315 314 313 312 308 311 312 311 311 308 307 308 305 305 303 302 301 300 299 298 297 297 296 295 295 295 294 293 293 292 292 292 291 290 289 289
311 311 309 307 309 311 310 312 311 315 306 310 313 310 309 309 308 307 307 305 305 304 302 302 300 299 298 298 297 297 296 295 295 294 294 293 292 292 291 291 291 290 290 290
310 313 308 306 306 307 309 307 313 313 316 313 312 309 312 311 310 309 306 304 304 303 303 302 300 299 299 299 298 298 296 295 295 294 294 293 292 292 291 291 290 290 290 289
308 311 311 305 306 309 306 308 308 309 313 315 314 313 307 308 309 310 307 304 303 303 303 302 301 300 300 300 299 298 297 296 295 294 293 293 292 291 291 291 291 290 290 288
310 312 315 311 306 305 307 310 311 313 313 309 312 313 309 309 308 309 309 307 306 304 304 302 301 299 299 299 298 298 297 295 295 294 292 292 291 291 291 290 290 290 289 288
312 313 316 314 310 304 306 306 309 309 310 313 314 313 310 310 307 306 305 304 304 305 305 303 300 299 299 299 298 297 297 296 295 294 292 291 291 291 290 290 289 289 288 286
314 313 317 319 315 310 311 310 308 309 311 312 312 313 312 312 311 311 311 306 305 304 303 302 301 299 297 298 298 297 296 296 295 293 292 290 290 290 289 288 287 288 287 285
313 314 314 315 315 315 315 313 312 312 313 314 312 310 310 310 310 309 309 308 307 306 304 303 301 300 299 298 297 297 296 295 295 293 291 290 289 288 288 286 286 287 285 284
310 315 315 315 313 314 315 313 313 312 312 313 313 314 311 311 310 310 309 309 308 307 307 305 303 301 298 295 297 296 295 295 294 292 290 289 288 287 286 284 285 285 283 282
313 312 315 316 313 314 315 314 314 313 313 312 312 310 310 310 310 310 310 309 308 308 307 304 303 302 299 298 300 296 296 294 292 290 289 287 285 283 282 282 283 282 281 280
310 311 313 316 314 316 312 310 311 312 312 311 310 310 310 311 310 310 309 308 308 308 305 303 301 300 299 301 301 299 296 293 291 289 287 285 283 281 280 282 281 279 279 278
310 311 314 316 316 315 313 310 310 311 311 310 310 310 310 310 309 309 308 305 307 308 307 305 303 300 301 301 300 296 291 289 288 286 284 282 282 280 280 279 278 278 277 277
310 311 314 315 317 317 312 311 310 310 313 300 304 302 301 304 310 309 303 302 300 300 299 298 298 298 298 297 294 290 286 285 285 285 283 281 281 279 278 278 277 277 277 276
306 309 312 313 315 315 303 302 303 313 304 299 301 300 301 302 302 302 300 300 300 296 292 293 292 291 292 290 289 286 284 284 285 283 282 280 280 279 279 278 277 276 275 275
297 300 301 303 311 313 298 300 298 296 295 296 298 296 298 299 299 300 299 298 298 298 297 293 289 289 288 286 286 284 283 284 284 282 280 279 278 278 277 276 275 275 275 274
295 298 293 292 296 293 296 291 291 294 297 298 297 296 295 295 295 295 297 296 298 298 298 297 288 288 288 287 286 284 283 283 282 280 278 277 277 276 276 275 274 273 273 272
287 289 289 288 290 288 289 290 291 291 291 292 293 292 291 291 292 292 293 294 294 295 296 296 287 286 286 286 287 286 284 282 280 277 276 275 275 274 274 274 273 273 272 272
288 288 286 287 288 288 289 290 289 288 288 288 286 286 287 288 289 290 290 290 292 293 294 294 293 292 291 291 286 285 284 282 278 276 274 274 274 273 273 273 272 272 273 274
288 288 288 287 288 287 287 286 285 282 281 280 281 282 282 282 283 284 284 286 288 289 291 291 290 289 290 289 286 284 282 280 277 275 274 274 273 273 272 272 272 273 273 274